Home > Weather > Cagliari > Past weeks

Flag for Italy Past Weather in Cagliari, Italy — Yesterday and Last 2 Weeks

Now
73 °F

Passing clouds.


Feels Like: 76 °F
Forecast: 69 / 88 °F
Wind: 17 mph from Northwest

Location: Cagliari / Elmas

Current Time: Jul 25, 2016 at 12:32:44 AM

Latest Report: Jul 24, 2016 at 11:50 PM


Visibility: N/A

Pressure: 29.95 "Hg

Humidity: 69%

Dew Point: 63 °F

Location of CagliariLocation

Past Weather in Cagliari — Graph

°F

Cagliari Temperature Yesterday

Maximum temperature yesterday: 88 °F (at 3:20 PM)
Minimum temperature yesterday: 68 °F (at 4:50 AM)
Average temperature yesterday: 77 °F

High & Low Weather Summary for the Past Weeks

 TemperatureHumidityPressure
High95 °F (Jul 13, 1:50 PM)100% (Jul 20, 1:20 AM)32.81 "Hg (Jul 20, 1:20 AM)
Low59 °F (Jul 17, 6:20 AM)18% (Jul 16, 1:20 PM)29.83 "Hg (Jul 13, 3:20 PM)
Average77 °F57%29.99 "Hg
* Reported Jul 9 11:20 PM — Jul 24 11:20 PM, Cagliari, Weather by CustomWeather, © 2016

Note: Actual official high and low records may vary slightly from our data, if they occured in-between our weather recording intervals... More about our weather records

Advertising

Cagliari Weather History for the Previous 24 Hours

Scroll right to see more
 ConditionsComfort  
Time TempWeatherWind HumidityBarometerVisibility
11:20 PM
Sun, Jul 24
73 °FPassing clouds.13 mph69%29.95 "HgN/A
10:50 PM75 °FPassing clouds.16 mph65%29.92 "HgN/A
10:20 PM75 °FPassing clouds.14 mph69%29.92 "HgN/A
9:50 PM75 °FPassing clouds.13 mph69%29.92 "HgN/A
9:20 PM75 °FScattered clouds.14 mph69%29.92 "HgN/A
8:50 PM75 °FScattered clouds.16 mph65%29.89 "HgN/A
8:20 PM77 °FScattered clouds.15 mph61%29.89 "HgN/A
7:50 PM79 °FPassing clouds.20 mph61%29.89 "HgN/A
7:20 PM79 °FPassing clouds.21 mph58%29.89 "HgN/A
6:50 PM79 °FPassing clouds.21 mph58%29.89 "HgN/A
6:20 PM81 °FPassing clouds.18 mph58%29.89 "HgN/A
5:50 PM82 °FPassing clouds.18 mph48%29.92 "HgN/A
5:20 PM82 °FPassing clouds.20 mph55%29.92 "HgN/A
4:50 PM84 °FPassing clouds.17 mph48%29.92 "HgN/A
4:20 PM86 °FPassing clouds.17 mph46%29.92 "HgN/A
3:50 PM88 °FPassing clouds.15 mph46%29.92 "HgN/A
3:20 PM88 °FPassing clouds.15 mph43%29.92 "HgN/A
2:50 PM86 °FPassing clouds.16 mph46%29.92 "HgN/A
2:20 PM86 °FScattered clouds.10 mph46%29.92 "HgN/A
1:50 PM86 °FPassing clouds.12 mph46%29.95 "HgN/A
1:20 PM86 °FPassing clouds.15 mph46%29.95 "HgN/A
12:50 PM86 °FPassing clouds.14 mph46%29.95 "HgN/A
12:20 PM86 °FPassing clouds.13 mph49%29.95 "HgN/A
11:50 AM84 °FPassing clouds.10 mph48%29.95 "HgN/A
11:20 AM82 °FPassing clouds.12 mph51%29.95 "HgN/A
10:50 AM82 °FPassing clouds.14 mph55%29.98 "HgN/A
10:20 AM81 °FPassing clouds.12 mph58%29.98 "HgN/A
9:50 AM77 °FPassing clouds.9 mph65%29.98 "HgN/A
9:20 AM77 °FSunny.8 mph65%29.98 "Hg10 mi
8:50 AM75 °FSunny.8 mph69%29.98 "Hg10 mi
8:20 AM73 °FSunny.10 mph74%29.98 "Hg10 mi
7:50 AM72 °FSunny.7 mph78%29.98 "Hg10 mi
7:20 AM70 °FSunny.7 mph83%29.98 "Hg10 mi
6:50 AM68 °FClear.8 mph88%29.98 "Hg10 mi
6:20 AM68 °FClear.6 mph88%29.98 "Hg10 mi
5:50 AM68 °FClear.7 mph88%29.98 "Hg10 mi
5:20 AM68 °FClear.7 mph88%29.98 "Hg10 mi
4:50 AM68 °FClear.7 mph88%29.98 "Hg10 mi
4:20 AM70 °FClear.7 mph73%29.98 "Hg10 mi
3:50 AM70 °FClear.8 mph88%29.98 "Hg10 mi
3:20 AM70 °FClear.7 mph88%29.98 "Hg10 mi
2:50 AM70 °FClear.6 mph83%29.98 "Hg10 mi
2:20 AM70 °FClear.8 mph88%30.01 "Hg10 mi
1:50 AM72 °FClear.6 mph83%30.01 "Hg10 mi
1:20 AM72 °FPassing clouds.5 mph83%30.01 "HgN/A
12:50 AM72 °FClear.12 mph83%29.98 "Hg10 mi
12:20 AM73 °FClear.16 mph78%30.01 "Hg10 mi
Weather by CustomWeather, © 2016

See weather overviewHow to use our weather pages